Location: Boiro
(42.6475°N, 8.8834°W)
Time: 05:49:15
(UTC+01:00)

Transit 4A - Pass Details

Date: 04 December 2021
Orbit: 864 x 980 km, 66.8° (Epoch: 17 January)

Event Time Altitude Azimuth Distance (km) Brightness Sun altitude
Exits shadow 04:21:22 13° 89° (E) 2,464 10.5 -48.3°
Drops below altitude 10° 04:22:19 10° 95° (E) 2,714 10.8 -48.2°
Sets 04:25:26 0° 109° (ESE) 3,668 11.5 -47.6°
